www.pogodaiklimat.ru

Погода и климат >> Архив погоды >> Антарктида >> Casey


ПОГОДА в Casey

  • Прогноз погоды в Casey
  • Монитор погоды в Casey
  • Климат города

АРХИВ ПОГОДЫ в Casey

Время (UTC), дата Ветер
(напр.,м/с)
 
Видим.   Явления Облачность Т
(С)
Тd
(С)
f
(%)
Тe
(С)
Тes
(С)
Комфортность P
(гПа)
Po
(гПа)
Тmin
(С)
Tmax
(С)
R
(мм)
R24
(мм)
S
(см)
06 19.09 СВ 3 30 км 9/9 600 м
[Sc]
-19.1 -23.5 68 -26 -26 983.8 978.3
09 19.09 В 3 30 км 9/9 300 м
[Sc Ci fib]
-19.6 -23.3 72 -27 -27 982.9 977.4
12 19.09 СВ 2 30 км 9/9 300 м
[Sc]
-19.9 -22.4 80 -26 -26 981.9 976.4
15 19.09 С 3 30 км 4/4 600 м
[Sc]
-20.1 -23.1 77 -27 -27 981.3 975.8 -16.5
18 19.09 СВ 3 н/о н/о -20.2 -23.0 78 -28 -28 980.3 974.8
21 19.09 СВ 3 н/о н/о -21.0 -23.9 77 -28 -28 979.2 973.7
00 20.09 В 3 30 км 9/1 100 м
[St Ac trans Cs]
-20.7 -25.9 63 -28 -28 978.2 972.8
03 20.09 СВ 2 30 км 9/1 300 м
[Sc Cs]
-17.4 -25.3 50 -23 -21 977.3 971.9 -23.0
06 20.09 СВ 3 30 км 9/1 300 м
[Sc Cs]
-17.3 -22.4 64 -24 -22 976.1 970.7
09 20.09 СВ 4 30 км 9/3 300 м
[Sc Ac trans Cc]
-19.1 -22.7 73 -27 -27 975.0 969.6
12 20.09 СВ 5 30 км 9/9 100 м
[Sc]
-19.9 -22.4 80 -30 -30 974.3 968.9
15 20.09 В 7 30 км 9/9 100 м
[Sc]
-20.8 -23.6 78 -32 -32 опасность
обморожения
973.7 968.3 -17.0
18 20.09 В 6 н/о 10/10 300 м
[]
-21.1 -24.6 73 -32 -32 опасность
обморожения
973.3 967.9
21 20.09 СВ 3 н/о 10/10 300 м
[]
-21.4 -25.2 71 -29 -29 973.4 968.0
00 21.09 Ю 1 22 км 9/9 100 м
[Sc]
-23.6 -28.8 62 -24 -24 973.9 968.5
03 21.09 Ю 5 12 км осадки на расстоянии 10/10 100 м
[Sc]
-23.8 -28.8 63 -34 -34 опасность
обморожения
974.7 969.3 -23.7
06 21.09 Ю 3 3000 м слабый снег 10/10 600 м
[Sc]
-22.6 -26.5 70 -31 -31 опасность
обморожения
975.2 969.8
09 21.09 СВ 1 2700 м слабый снег 10/10 600 м
[Sc]
-21.2 -25.5 68 -24 -24 976.4 971.0
12 21.09 С 4 2600 м слабый снег 10/10 600 м
[Sc]
-21.9 -25.9 70 -31 -31 опасность
обморожения
978.0 972.6
15 21.09 СВ 3 2600 м слабый снег 10/10 600 м
[Sc]
-22.2 -26.3 69 -30 -30 980.0 974.5 -19.2
18 21.09 ЮВ 3 н/о 9/9 1000 м
[]
-23.6 -26.8 75 -31 -31 опасность
обморожения
981.1 975.6
21 21.09 Ю 4 н/о 10/10 1000 м
[]
-24.6 -27.7 75 -34 -34 опасность
обморожения
982.4 976.9
00 22.09 Ю 4 8000 м слабый снег 10/10 600 м
[Sc]
-25.3 -28.7 73 -36 -36 опасность
обморожения
983.0 977.5
03 22.09 СВ 7 5000 м слабый снег 9/9 600 м
[Sc]
-20.9 -24.1 75 -33 -33 опасность
обморожения
983.3 977.8 -25.3
06 22.09 С 11 1000 м метель {снег} 9/9 600 м
[Sc]
-20.8 -23.7 77 -35 -35 опасность
обморожения
983.0 977.5
09 22.09 СВ 6 20 км {метель} 9/8 300 м
[Sc Ci sp]
-20.8 -25.1 68 -32 -32 опасность
обморожения
981.8 976.3
12 22.09 Ю 5 30 км 8/3 300 м
[St Ci sp]
-24.3 -29.6 61 -36 -36 опасность
обморожения
978.0 972.6
15 22.09 Ю 8 8000 м слабый снег 10/1 1000 м
[Sc As op]
-24.7 -29.2 66 -38 -38 опасность
обморожения
974.1 968.7 -20.2
18 22.09 Ю 6 н/о 10/10 1000 м
[]
-23.8 -27.7 70 -35 -35 опасность
обморожения
975.6 970.2
21 22.09 С 3 н/о н/о -23.6 -27.3 71 -32 -32 опасность
обморожения
979.3 973.8
00 23.09 Ю 3 30 км ледяные иглы 5/5 300 м
[Sc]
-24.3 -27.7 73 -32 -32 опасность
обморожения
983.1 977.6
03 23.09 Ю 4 30 км ледяные иглы {снег} 3/1 300 м
[St Cs]
-25.4 -29.7 67 -35 -33 опасность
обморожения
985.4 979.9 -26.4
06 23.09 ЮВ 2 30 км 9/1 300 м
[St Cs]
-24.6 -29.3 65 -30 -27 987.0 981.5
09 23.09 ЮЗ 10 30 км позёмок 8/1 300 м
[St Cs]
-24.5 -28.4 70 -39 -39 опасность
обморожения
987.6 982.1
12 23.09 Ю 9 30 км {снег} 1/1 200 м
[St]
-29.1 -34.0 62 -45 -45 опасность
обморожения
990.1 984.6
15 23.09 Ю 7 30 км 3/1 200 м
[St Ci fib]
-31.6 -35.7 67 -46 -46 опасность
обморожения
993.4 987.9 -21.4
18 23.09 Ю 8 н/о н/о -32.7 -36.6 68 -49 -49 опасность
обморожения
996.0 990.5
21 23.09 Ю 6 н/о н/о -31.5 -35.9 65 -45 -45 опасность
обморожения
997.4 991.8
00 24.09 Ю 6 20 км 9/1 100 м
[Sc Cs]
-27.1 -32.5 60 -40 -40 опасность
обморожения
997.3 991.7
03 24.09 СВ 1 15 км 10/0
[As trans]
-21.8 -28.2 56 -23 -21 997.9 992.3 -33.5
06 24.09 ЮЗ 3 700 м снег 10/0
[As op]
-19.2 -22.0 78 -26 -25 996.0 990.5
09 24.09 С 2 500 м снег 10/10 1000 м
[Sc]
-17.3 -19.6 82 -23 -23 992.3 986.8
12 24.09 ЮЗ 7 400 м снег 10/10 600 м
[Sc]
-14.9 -16.8 85 -25 -25 991.6 986.1
15 24.09 ЮЗ 6 200 м сильный снег 10/10 300 м
[Sc]
-11.6 -13.0 89 -20 -20 992.4 986.9 -14.7
18 24.09 Ю 1 н/о 9/9 1000 м
[]
-11.3 -12.7 89 -14 -14 992.5 987.0
21 24.09 З 3 н/о 10/10 100 м
[]
-11.6 -13.2 88 -17 -17 992.8 987.3
00 25.09 С 5 10 км слабый снег 10/10 200 м
[St]
-14.3 -16.1 86 -23 -23 993.2 987.7
03 25.09 С 4 12 км слабый снег 10/10 200 м
[Sc]
-12.4 -14.2 86 -19 -19 992.8 987.3 -27.1
06 25.09 СЗ 6 14 км слабый снег 9/9 200 м
[Sc]
-12.5 -14.5 85 -21 -21 992.9 987.4
09 25.09 С 4 8000 м слабый снег 10/10 200 м
[Sc]
-13.1 -15.1 85 -20 -20 993.3 987.8
12 25.09 СВ 2 18 км осадки на расстоянии {снег} 10/10 200 м
[Sc]
-13.5 -15.6 84 -18 -18 993.6 988.1
15 25.09 В 3 18 км 10/10 200 м
[Sc]
-13.5 -15.3 86 -20 -20 992.5 987.0 -11.0
18 25.09 Ю 5 н/о 10/10 200 м
[]
-14.9 -16.7 86 -24 -24 991.1 985.6
21 25.09 Ю 3 н/о 10/10 100 м
[]
-17.6 -19.6 84 -24 -24 989.8 984.3
00 26.09 Ю 3 300 м туман 10/10 <50 м
[St Ci fib]
-20.9 -23.1 82 -28 -28 988.1 982.6

 

Местоположение метеостанции Casey (Антарктида): широта -66.28 долгота 110.51 высота над уровнем моря 41 м.

В архиве по умолчанию представлена погода в Casey за последнюю неделю. Архивные данные за месяц целиком и за предыдущие месяцы, начиная с января 2011 года, Вы можете получить, выбрав интересующий диапазон дат из раскрывающегося списка и нажав кнопку "Ввод!".


*Определитесь, кто Вы:
робот инопланетянин человек

Внимание! Время в таблицах - всемирное. Для получения местного времени необходимо прибавить поправку, которая в Casey равна 0 ч.

Смотрите также архив погоды в соседних городах и на ближайших метеорологических станциях:

Погода в Casey Skiway South (Антарктида) (12 км)
Погода в Casey (Peterson air) (Антарктида) (46 км)
Погода в Wilkins Runway East (Антарктида) (63 км)
Погода в Casey Snyder Rocks (Антарктида) (126 км)
Погода в Oazic Bangera (Антарктида) (436 км)
Погода в Mirnyj (Антарктида) (776 км)
Погода в Dome C II (Антарктида) (1085 км)
Погода в Vostok (Антарктида) (1361 км)

Пояснения к столбцам:

Ветер - указаны скорость ветра в м/с - средняя за 10 мин, порывы в срок и между сроками (в фигурных скобках) и направление, откуда дует ветер: С - северный, СВ - северо-восточный, В - восточный, ЮВ - юго-восточный, Ю - южный, ЮЗ - юго-западный, З - западный, СЗ - северо-западный.
Видимость - горизонтальная дальность видимости в метрах или километрах. При видимости от 1 до 10 км при отсутствии осадков обычно наблюдается дымка, при ухудшении видимости до 1 км и менее - туман. В сухую погоду видимость может ухудшаться дымом, пылью или мглою.
Явления - указаны атмосферные явления, наблюдавшиеся в срок или в последний час перед сроком; фигурными скобками обозначены явления, наблюдавшиеся между сроками (за 1-3 часа до срока); квадратными скобками обозначены град или гололедные отложения с указанием их диаметра в мм.
Облачность - указаны через наклонную черту общая и нижняя облачность в баллах и высота нижней границы облаков в метрах; квадратными скобками обозначены формы облаков: Ci - перистые, Cs - перисто-слоистые, Cc - перисто-кучевые, Ac - высококучевые, As - высокослоистые, Sc - слоисто-кучевые, Ns - слоисто-дождевые, Cu - кучевые, Cb - кучево-дождевые. Подробнее классификацию облаков см. в Атласе облаков (PDF).
T - Температура воздуха - температура, измеренная на высоте 2 м над землей.
Td - Температура точки росы - температура, при понижении до которой содержащийся в воздухе водяной пар достигнет насыщения.
f - Относительная влажность воздуха - влажноcть воздуха, измеренная на высоте 2 м над землей.
Te - Эффективная температура - температура, которую ощущает одетый по сезону человек в тени. Характеристика душности погоды. При расчете учитывается влияние влажности воздуха и скорости ветра на теплоощущения человека.
Tes - Эффективная температура на солнце - температура, которую ощущает человек, с поправкой на солнечный нагрев. Характеристика знойности погоды. Зависит от высоты солнца над горизонтом, облачности и скорости ветра. Ночью, в пасмурную погоду, а также при ветре 12 м/с и более поправка равна нулю.
P - Атмосферное давление - приведенное к уровню моря атмосферное давление.
Po - Атмосферное давление - измеренное на уровне метеостанции атмосферное давление.
Tmin - Минимальная температура - минимум температуры воздуха на высоте 2 м над землей.
Tmax - Максимальная температура - максимум температуры воздуха на высоте 2 м над землей.
R - Количество осадков - Количество выпавших осадков за период времени, мм. При наведении курсора мыши на число - период времени, за который выпало указанное количество осадков.
R24 - Количество осадков - Количество выпавших осадков за 24 часа, мм.
S - Снежный покров - Высота снежного покрова, см. При наведении курсора мыши на число - состояние снежного покрова и степень покрытия местности в баллах.